Location: Adrasan
(36.3319°N, 30.4314°E)
Time: 21:30:25
(UTC+00:00)

Cosmos 1371 Rocket - Visible Passes

Search period start: 27 May 2024 00:00
Search period end: 06 June 2024 00:00
Orbit: 751 x 787 km, 74.0° (Epoch: 27 May)

Date Brightness Start Highest point End Pass type
(mag) Time Alt. Az. Time Alt. Az. Time Alt. Az.
27 May 6.0 18:54:52 10° NW 18:59:01 23° W 19:03:10 10° SSW visible
28 May 5.2 18:17:37 10° NNW 18:22:36 41° W 18:27:34 10° S visible
29 May 4.3 17:40:45 10° NNW 17:46:06 73° WSW 17:51:24 10° S visible
30 May 6.7 18:48:37 10° WNW 18:50:55 13° W 18:53:12 10° WSW visible
31 May 6.2 18:10:26 10° NW 18:14:35 23° W 18:18:43 10° SSW visible
01 Jun 5.4 17:33:12 10° NNW 17:38:10 40° W 17:43:07 10° S visible
03 Jun 6.8 18:04:13 10° WNW 18:06:28 13° W 18:08:43 10° WSW visible
